{"data":{"norad_id":63205,"epoch":"2026-05-25T04:37:15.210624Z","epoch_age_seconds":61473,"freshness":"FRESH","line1":"1 63205U 25050A   26145.19253716  .00004273  00000+0  32673-3 0  9999","line2":"2 63205  42.0186 229.2816 0004168 343.3011  16.7678 15.02901556 65508","mean_motion":15.02901556,"eccentricity":0.0004168,"inclination_deg":42.0186,"raan_deg":229.2816,"arg_perigee_deg":343.3011,"mean_anomaly_deg":16.7678,"bstar":0.00032673,"rev_number":6550,"period_min":95.814658934321,"perigee_km":555.06361585692,"apogee_km":560.84554179703,"semimajor_km":6936.091578827,"source":"CELESTRAK","updated_at":"2026-05-25T13:38:03.572600Z"}}